Time,TemperatureF,DewpointF,PressureIn,WindDirection,WindDirectionDegrees,WindSpeedMPH,WindSpeedGustMPH,Humidity,HourlyPrecipIn,Conditions,Clouds,dailyrainin,SolarRadiationWatts/m^2,SoftwareType,DateUTC
2013-03-22 00:01:00,36.9,35.9,30.19,ESE,107,1.0,1.0,96,0.00,,,0.00,0,Wunderground v.1.15,2013-03-22 07:01:00,
2013-03-22 00:07:00,36.9,35.9,30.19,ESE,109,0.0,2.0,96,0.00,,,0.00,0,Wunderground v.1.15,2013-03-22 07:07:00,
2013-03-22 00:12:00,36.9,35.9,30.19,ESE,109,0.0,0.0,96,0.00,,,0.00,0,Wunderground v.1.15,2013-03-22 07:12:00,
2013-03-22 00:17:00,36.9,35.9,30.19,ESE,109,1.0,1.0,96,0.00,,,0.00,0,Wunderground v.1.15,2013-03-22 07:17:00,
2013-03-22 00:22:00,36.9,35.9,30.19,ESE,109,0.0,0.0,96,0.00,,,0.00,0,Wunderground v.1.15,2013-03-22 07:22:00,
2013-03-22 00:27:00,36.9,35.9,30.19,ESE,109,0.0,1.0,96,0.00,,,0.00,0,Wunderground v.1.15,2013-03-22 07:27:00,
2013-03-22 00:33:00,36.8,35.8,30.19,ESE,109,0.0,0.0,96,0.00,,,0.00,0,Wunderground v.1.15,2013-03-22 07:33:00,
2013-03-22 00:38:00,36.8,35.8,30.19,ESE,109,0.0,0.0,96,0.00,,,0.00,0,Wunderground v.1.15,2013-03-22 07:38:00,
2013-03-22 00:43:00,36.6,35.6,30.19,ESE,109,0.0,0.0,96,0.00,,,0.00,0,Wunderground v.1.15,2013-03-22 07:43:00,
2013-03-22 00:49:00,36.5,35.5,30.19,ESE,109,0.0,0.0,96,0.00,,,0.00,0,Wunderground v.1.15,2013-03-22 07:49:00,
2013-03-22 00:54:00,36.5,35.5,30.19,ESE,109,0.0,0.0,96,0.00,,,0.00,0,Wunderground v.1.15,2013-03-22 07:54:00,
2013-03-22 00:59:00,36.3,35.3,30.19,ESE,109,0.0,0.0,96,0.00,,,0.00,0,Wunderground v.1.15,2013-03-22 07:59:00,
2013-03-22 01:05:00,36.2,35.2,30.19,ESE,109,0.0,0.0,96,0.00,,,0.00,0,Wunderground v.1.15,2013-03-22 08:05:00,
2013-03-22 01:10:00,35.9,34.9,30.19,ESE,109,0.0,0.0,96,0.00,,,0.00,0,Wunderground v.1.15,2013-03-22 08:10:00,
2013-03-22 01:15:00,35.8,34.8,30.19,ESE,109,0.0,0.0,96,0.00,,,0.00,0,Wunderground v.1.15,2013-03-22 08:15:00,
2013-03-22 01:20:00,35.6,34.6,30.19,ESE,109,0.0,0.0,96,0.00,,,0.00,0,Wunderground v.1.15,2013-03-22 08:20:00,
2013-03-22 01:25:00,35.5,34.5,30.19,ESE,109,0.0,0.0,96,0.00,,,0.00,0,Wunderground v.1.15,2013-03-22 08:25:00,
2013-03-22 01:31:00,35.3,34.0,30.20,ESE,109,0.0,0.0,95,0.00,,,0.00,0,Wunderground v.1.15,2013-03-22 08:31:00,
2013-03-22 01:36:00,35.2,33.9,30.20,ESE,109,0.0,0.0,95,0.00,,,0.00,0,Wunderground v.1.15,2013-03-22 08:36:00,
2013-03-22 01:41:00,34.9,33.9,30.20,ESE,109,0.0,0.0,96,0.00,,,0.00,0,Wunderground v.1.15,2013-03-22 08:41:00,
2013-03-22 01:47:00,34.7,33.4,30.20,ESE,109,0.0,0.0,95,0.00,,,0.00,0,Wunderground v.1.15,2013-03-22 08:47:00,
2013-03-22 01:53:00,34.6,33.3,30.20,ESE,109,0.0,0.0,95,0.00,,,0.00,0,Wunderground v.1.15,2013-03-22 08:53:00,
2013-03-22 01:58:00,34.4,33.1,30.20,ESE,109,0.0,0.0,95,0.00,,,0.00,0,Wunderground v.1.15,2013-03-22 08:58:00,
2013-03-22 02:03:00,34.3,33.0,30.21,ESE,109,0.0,0.0,95,0.00,,,0.00,0,Wunderground v.1.15,2013-03-22 09:03:00,
2013-03-22 02:08:00,34.1,32.8,30.21,ESE,109,0.0,0.0,95,0.00,,,0.00,0,Wunderground v.1.15,2013-03-22 09:08:00,
2013-03-22 02:13:00,34.0,32.7,30.21,ESE,109,0.0,1.0,95,0.00,,,0.00,0,Wunderground v.1.15,2013-03-22 09:13:00,
2013-03-22 02:18:00,33.8,32.5,30.21,ESE,109,0.0,1.0,95,0.00,,,0.00,0,Wunderground v.1.15,2013-03-22 09:18:00,
2013-03-22 02:23:00,33.8,32.5,30.21,ESE,109,0.0,0.0,95,0.00,,,0.00,0,Wunderground v.1.15,2013-03-22 09:23:00,
2013-03-22 02:28:00,33.7,32.4,30.21,ESE,109,0.0,0.0,95,0.00,,,0.00,0,Wunderground v.1.15,2013-03-22 09:28:00,
2013-03-22 02:33:00,33.7,32.7,30.21,ESE,109,0.0,0.0,96,0.00,,,0.00,0,Wunderground v.1.15,2013-03-22 09:33:00,
2013-03-22 02:38:00,33.7,32.7,30.21,ESE,109,0.0,0.0,96,0.00,,,0.00,0,Wunderground v.1.15,2013-03-22 09:38:00,
2013-03-22 02:43:00,33.7,32.7,30.21,ESE,109,0.0,1.0,96,0.00,,,0.00,0,Wunderground v.1.15,2013-03-22 09:43:00,
2013-03-22 02:48:00,33.8,32.8,30.22,ESE,109,0.0,1.0,96,0.00,,,0.00,0,Wunderground v.1.15,2013-03-22 09:48:00,
2013-03-22 02:53:00,33.8,32.8,30.22,ESE,106,0.0,1.0,96,0.00,,,0.00,0,Wunderground v.1.15,2013-03-22 09:53:00,
2013-03-22 02:58:00,33.8,32.8,30.22,ESE,106,0.0,1.0,96,0.00,,,0.00,0,Wunderground v.1.15,2013-03-22 09:58:00,
2013-03-22 03:04:00,33.8,32.8,30.22,ESE,106,0.0,0.0,96,0.00,,,0.00,0,Wunderground v.1.15,2013-03-22 10:04:00,
2013-03-22 03:08:00,34.0,33.0,30.22,ESE,106,0.0,0.0,96,0.00,,,0.00,0,Wunderground v.1.15,2013-03-22 10:08:00,
2013-03-22 03:14:00,34.0,33.0,30.22,SE,140,0.0,1.0,96,0.00,,,0.00,0,Wunderground v.1.15,2013-03-22 10:14:00,
2013-03-22 03:19:00,34.0,33.0,30.21,SE,140,0.0,1.0,96,0.00,,,0.00,0,Wunderground v.1.15,2013-03-22 10:19:00,
2013-03-22 03:23:00,34.1,33.1,30.21,SE,140,0.0,0.0,96,0.00,,,0.00,0,Wunderground v.1.15,2013-03-22 10:23:00,
2013-03-22 03:29:00,34.1,33.1,30.21,SE,140,0.0,1.0,96,0.00,,,0.00,0,Wunderground v.1.15,2013-03-22 10:29:00,
2013-03-22 03:34:00,34.1,33.1,30.22,NNW,333,0.0,2.0,96,0.00,,,0.00,0,Wunderground v.1.15,2013-03-22 10:34:00,
2013-03-22 03:39:00,34.3,33.3,30.22,NNW,333,0.0,2.0,96,0.00,,,0.00,0,Wunderground v.1.15,2013-03-22 10:39:00,
2013-03-22 03:44:00,34.3,33.3,30.22,NNW,333,0.0,0.0,96,0.00,,,0.00,0,Wunderground v.1.15,2013-03-22 10:44:00,
2013-03-22 03:49:00,34.3,33.3,30.23,NNW,333,0.0,0.0,96,0.00,,,0.00,0,Wunderground v.1.15,2013-03-22 10:49:00,
2013-03-22 03:54:00,34.4,33.6,30.23,NNW,333,0.0,0.0,97,0.00,,,0.00,0,Wunderground v.1.15,2013-03-22 10:54:00,
2013-03-22 03:59:00,34.4,33.6,30.23,NNW,333,0.0,0.0,97,0.00,,,0.00,0,Wunderground v.1.15,2013-03-22 10:59:00,
2013-03-22 04:03:00,34.4,33.6,30.23,NNW,333,0.0,0.0,97,0.00,,,0.00,0,Wunderground v.1.15,2013-03-22 11:03:00,
2013-03-22 04:08:00,34.4,33.6,30.23,NNW,333,0.0,0.0,97,0.00,,,0.00,0,Wunderground v.1.15,2013-03-22 11:08:00,
2013-03-22 04:13:00,34.6,33.8,30.23,North,360,0.0,1.0,97,0.00,,,0.00,0,Wunderground v.1.15,2013-03-22 11:13:00,
2013-03-22 04:18:00,34.6,33.8,30.22,ESE,112,0.0,1.0,97,0.00,,,0.00,0,Wunderground v.1.15,2013-03-22 11:18:00,
2013-03-22 04:23:00,34.6,33.8,30.22,South,173,0.0,1.0,97,0.00,,,0.00,0,Wunderground v.1.15,2013-03-22 11:23:00,
2013-03-22 04:28:00,34.6,33.8,30.22,South,173,0.0,1.0,97,0.00,,,0.00,0,Wunderground v.1.15,2013-03-22 11:28:00,
2013-03-22 04:33:00,34.6,33.8,30.22,South,173,0.0,1.0,97,0.00,,,0.00,0,Wunderground v.1.15,2013-03-22 11:33:00,
2013-03-22 04:38:00,34.6,33.8,30.22,South,173,1.0,2.0,97,0.00,,,0.00,0,Wunderground v.1.15,2013-03-22 11:38:00,
2013-03-22 04:43:00,34.4,33.6,30.22,SE,146,0.0,2.0,97,0.00,,,0.00,0,Wunderground v.1.15,2013-03-22 11:43:00,
2013-03-22 04:48:00,34.4,33.6,30.22,SW,215,0.0,2.0,97,0.00,,,0.00,0,Wunderground v.1.15,2013-03-22 11:48:00,
2013-03-22 04:53:00,34.4,33.6,30.22,SW,215,0.0,2.0,97,0.00,,,0.00,0,Wunderground v.1.15,2013-03-22 11:53:00,
2013-03-22 04:58:00,34.4,33.6,30.22,SW,215,0.0,2.0,97,0.00,,,0.00,0,Wunderground v.1.15,2013-03-22 11:58:00,
2013-03-22 05:03:00,34.4,33.6,30.22,South,190,1.0,1.0,97,0.00,,,0.00,0,Wunderground v.1.15,2013-03-22 12:03:00,
2013-03-22 05:08:00,34.4,33.6,30.22,SSE,167,0.0,2.0,97,0.00,,,0.00,0,Wunderground v.1.15,2013-03-22 12:08:00,
2013-03-22 05:13:00,34.4,33.6,30.22,SSE,167,0.0,1.0,97,0.00,,,0.00,0,Wunderground v.1.15,2013-03-22 12:13:00,
2013-03-22 05:18:00,34.4,33.6,30.22,SSE,167,0.0,2.0,97,0.00,,,0.00,0,Wunderground v.1.15,2013-03-22 12:18:00,
2013-03-22 05:23:00,34.4,33.6,30.22,SSE,167,0.0,1.0,97,0.00,,,0.00,0,Wunderground v.1.15,2013-03-22 12:23:00,
2013-03-22 05:28:00,34.4,33.6,30.22,SSE,167,0.0,1.0,97,0.00,,,0.00,0,Wunderground v.1.15,2013-03-22 12:28:00,
2013-03-22 05:33:00,34.4,33.6,30.22,South,174,0.0,2.0,97,0.00,,,0.00,0,Wunderground v.1.15,2013-03-22 12:33:00,
2013-03-22 05:38:00,34.4,33.6,30.22,SSW,196,0.0,2.0,97,0.00,,,0.00,0,Wunderground v.1.15,2013-03-22 12:38:00,
2013-03-22 05:43:00,34.4,33.6,30.22,SSW,194,0.0,2.0,97,0.00,,,0.00,0,Wunderground v.1.15,2013-03-22 12:43:00,
2013-03-22 05:48:00,34.4,33.6,30.23,SSW,194,0.0,2.0,97,0.00,,,0.00,0,Wunderground v.1.15,2013-03-22 12:48:00,
2013-03-22 05:54:00,34.4,33.6,30.23,SSW,194,0.0,0.0,97,0.00,,,0.00,0,Wunderground v.1.15,2013-03-22 12:54:00,
2013-03-22 05:59:00,34.3,33.5,30.23,SSW,194,0.0,1.0,97,0.00,,,0.00,0,Wunderground v.1.15,2013-03-22 12:59:00,
2013-03-22 06:04:00,34.3,33.5,30.23,SSW,194,0.0,2.0,97,0.00,,,0.00,0,Wunderground v.1.15,2013-03-22 13:04:00,
2013-03-22 06:09:00,34.3,33.5,30.23,SSW,194,0.0,2.0,97,0.00,,,0.00,0,Wunderground v.1.15,2013-03-22 13:09:00,
2013-03-22 06:14:00,34.1,33.3,30.23,SSW,194,0.0,0.0,97,0.00,,,0.00,0,Wunderground v.1.15,2013-03-22 13:14:00,
2013-03-22 06:19:00,34.1,33.3,30.24,SSW,194,0.0,0.0,97,0.00,,,0.00,0,Wunderground v.1.15,2013-03-22 13:19:00,
2013-03-22 06:24:00,34.1,33.3,30.24,SSW,194,0.0,0.0,97,0.00,,,0.00,0,Wunderground v.1.15,2013-03-22 13:24:00,
2013-03-22 06:29:00,34.0,33.2,30.24,SSW,194,0.0,1.0,97,0.00,,,0.00,0,Wunderground v.1.15,2013-03-22 13:29:00,
2013-03-22 06:34:00,34.0,33.2,30.24,SSW,194,0.0,1.0,97,0.00,,,0.00,0,Wunderground v.1.15,2013-03-22 13:34:00,
2013-03-22 06:39:00,33.8,33.0,30.24,SSW,194,0.0,1.0,97,0.00,,,0.00,0,Wunderground v.1.15,2013-03-22 13:39:00,
2013-03-22 06:44:00,33.8,33.0,30.24,SSW,194,0.0,0.0,97,0.00,,,0.00,0,Wunderground v.1.15,2013-03-22 13:44:00,
2013-03-22 06:49:00,33.8,33.0,30.25,SSW,194,0.0,1.0,97,0.00,,,0.00,0,Wunderground v.1.15,2013-03-22 13:49:00,
2013-03-22 06:54:00,33.7,32.9,30.25,SSW,194,0.0,1.0,97,0.00,,,0.00,0,Wunderground v.1.15,2013-03-22 13:54:00,
2013-03-22 06:59:00,33.7,32.9,30.25,SSW,194,0.0,1.0,97,0.00,,,0.00,0,Wunderground v.1.15,2013-03-22 13:59:00,
2013-03-22 07:04:00,33.7,32.9,30.25,SSW,194,0.0,0.0,97,0.00,,,0.00,0,Wunderground v.1.15,2013-03-22 14:04:00,
2013-03-22 07:09:00,33.7,32.9,30.25,SSW,194,0.0,0.0,97,0.00,,,0.00,0,Wunderground v.1.15,2013-03-22 14:09:00,
2013-03-22 07:14:00,33.7,32.9,30.25,SSW,194,0.0,0.0,97,0.00,,,0.00,0,Wunderground v.1.15,2013-03-22 14:14:00,
2013-03-22 07:19:00,33.7,32.9,30.25,SSW,194,0.0,0.0,97,0.00,,,0.00,0,Wunderground v.1.15,2013-03-22 14:19:00,
2013-03-22 07:24:00,33.5,32.7,30.25,SSW,194,0.0,1.0,97,0.00,,,0.00,0,Wunderground v.1.15,2013-03-22 14:24:00,
2013-03-22 07:29:00,33.5,32.7,30.25,SSW,194,0.0,1.0,97,0.00,,,0.00,7,Wunderground v.1.15,2013-03-22 14:29:00,
2013-03-22 07:34:00,33.7,32.9,30.26,SSW,194,0.0,0.0,97,0.00,,,0.00,9,Wunderground v.1.15,2013-03-22 14:34:00,
2013-03-22 07:39:00,33.7,32.9,30.26,SSW,194,0.0,0.0,97,0.00,,,0.00,9,Wunderground v.1.15,2013-03-22 14:39:00,
2013-03-22 07:44:00,33.7,32.9,30.26,SSW,194,0.0,0.0,97,0.00,,,0.00,9,Wunderground v.1.15,2013-03-22 14:44:00,
2013-03-22 07:49:00,33.7,32.9,30.26,SSW,194,0.0,0.0,97,0.00,,,0.01,9,Wunderground v.1.15,2013-03-22 14:49:00,
2013-03-22 07:54:00,33.8,33.0,30.26,SSW,194,0.0,1.0,97,0.00,,,0.01,9,Wunderground v.1.15,2013-03-22 14:54:00,
2013-03-22 07:59:00,34.0,33.2,30.26,SSW,194,0.0,1.0,97,0.00,,,0.01,7,Wunderground v.1.15,2013-03-22 14:59:00,
2013-03-22 08:04:00,34.0,33.2,30.26,SSW,194,0.0,1.0,97,0.00,,,0.01,14,Wunderground v.1.15,2013-03-22 15:04:00,
2013-03-22 08:09:00,34.1,33.3,30.26,SSW,194,0.0,1.0,97,0.00,,,0.01,19,Wunderground v.1.15,2013-03-22 15:09:00,
2013-03-22 08:14:00,34.3,33.5,30.26,SSW,194,0.0,0.0,97,0.00,,,0.01,12,Wunderground v.1.15,2013-03-22 15:14:00,
2013-03-22 08:19:00,34.3,33.8,30.27,SSW,194,0.0,0.0,98,0.00,,,0.01,14,Wunderground v.1.15,2013-03-22 15:19:00,
2013-03-22 08:24:00,34.4,33.9,30.27,SSW,194,0.0,0.0,98,0.00,,,0.01,30,Wunderground v.1.15,2013-03-22 15:24:00,
2013-03-22 08:29:00,34.6,34.1,30.27,SSW,194,0.0,1.0,98,0.00,,,0.01,25,Wunderground v.1.15,2013-03-22 15:29:00,
2013-03-22 08:34:00,34.7,34.2,30.27,SSW,194,0.0,0.0,98,0.00,,,0.01,14,Wunderground v.1.15,2013-03-22 15:34:00,
2013-03-22 08:39:00,34.9,34.4,30.27,SSW,194,0.0,0.0,98,0.00,,,0.01,12,Wunderground v.1.15,2013-03-22 15:39:00,
2013-03-22 08:44:00,35.0,34.5,30.27,SSW,194,1.0,2.0,98,0.00,,,0.01,16,Wunderground v.1.15,2013-03-22 15:44:00,
2013-03-22 08:49:00,35.0,34.5,30.27,SSW,194,1.0,2.0,98,0.00,,,0.01,25,Wunderground v.1.15,2013-03-22 15:49:00,
2013-03-22 08:54:00,35.2,34.7,30.27,SSW,194,0.0,1.0,98,0.00,,,0.01,33,Wunderground v.1.15,2013-03-22 15:54:00,
2013-03-22 08:59:00,35.2,34.7,30.27,SSW,194,0.0,1.0,98,0.00,,,0.01,42,Wunderground v.1.15,2013-03-22 15:59:00,
2013-03-22 09:04:00,35.3,34.8,30.28,SSW,194,0.0,0.0,98,0.00,,,0.01,56,Wunderground v.1.15,2013-03-22 16:04:00,
2013-03-22 09:09:00,35.5,35.0,30.28,ENE,57,1.0,3.0,98,0.00,,,0.01,62,Wunderground v.1.15,2013-03-22 16:09:00,
2013-03-22 09:14:00,35.8,35.3,30.28,NE,56,0.0,3.0,98,0.00,,,0.01,62,Wunderground v.1.15,2013-03-22 16:14:00,
2013-03-22 09:19:00,35.9,35.4,30.29,ENE,63,2.0,4.0,98,0.00,,,0.01,62,Wunderground v.1.15,2013-03-22 16:19:00,
2013-03-22 09:24:00,36.2,35.7,30.29,East,94,0.0,4.0,98,0.00,,,0.01,81,Wunderground v.1.15,2013-03-22 16:24:00,
2013-03-22 09:29:00,36.5,36.0,30.29,ENE,57,5.0,5.0,98,0.00,,,0.01,91,Wunderground v.1.15,2013-03-22 16:29:00,
2013-03-22 09:34:00,36.8,36.5,30.29,NE,56,4.0,8.0,99,0.00,,,0.01,51,Wunderground v.1.15,2013-03-22 16:34:00,
2013-03-22 09:39:00,37.2,36.9,30.29,NE,46,5.0,8.0,99,0.00,,,0.01,90,Wunderground v.1.15,2013-03-22 16:39:00,
2013-03-22 09:44:00,37.5,37.2,30.29,NE,44,5.0,8.0,99,0.00,,,0.01,72,Wunderground v.1.15,2013-03-22 16:44:00,
2013-03-22 09:49:00,37.6,37.3,30.29,NE,42,5.0,8.0,99,0.00,,,0.01,72,Wunderground v.1.15,2013-03-22 16:49:00,
2013-03-22 09:54:00,37.8,37.5,30.29,NE,56,4.0,6.0,99,0.00,,,0.01,49,Wunderground v.1.15,2013-03-22 16:54:00,
2013-03-22 09:59:00,37.6,37.1,30.29,NE,40,3.0,6.0,98,0.00,,,0.01,44,Wunderground v.1.15,2013-03-22 16:59:00,
2013-03-22 10:04:00,37.5,37.0,30.29,NE,52,3.0,4.0,98,0.00,,,0.01,40,Wunderground v.1.15,2013-03-22 17:04:00,
2013-03-22 10:09:00,37.2,36.7,30.29,NE,38,3.0,4.0,98,0.00,,,0.01,35,Wunderground v.1.15,2013-03-22 17:09:00,
2013-03-22 10:14:00,37.2,36.7,30.29,NE,38,3.0,6.0,98,0.00,,,0.01,40,Wunderground v.1.15,2013-03-22 17:14:00,
2013-03-22 10:19:00,37.0,36.5,30.29,NNE,26,4.0,6.0,98,0.00,,,0.01,32,Wunderground v.1.15,2013-03-22 17:19:00,
2013-03-22 10:24:00,37.0,36.5,30.29,NE,38,5.0,6.0,98,0.00,,,0.01,47,Wunderground v.1.15,2013-03-22 17:24:00,
2013-03-22 10:29:00,37.0,36.5,30.29,NNE,32,5.0,7.0,98,0.00,,,0.01,67,Wunderground v.1.15,2013-03-22 17:29:00,
2013-03-22 10:34:00,37.0,36.5,30.30,North,9,4.0,7.0,98,0.00,,,0.01,35,Wunderground v.1.15,2013-03-22 17:34:00,
2013-03-22 10:39:00,37.0,36.5,30.30,NNE,30,4.0,7.0,98,0.00,,,0.01,39,Wunderground v.1.15,2013-03-22 17:39:00,
2013-03-22 10:44:00,36.9,36.4,30.30,NNE,30,6.0,7.0,98,0.00,,,0.01,62,Wunderground v.1.15,2013-03-22 17:44:00,
2013-03-22 10:49:00,36.9,36.4,30.30,NE,45,5.0,8.0,98,0.00,,,0.01,118,Wunderground v.1.15,2013-03-22 17:49:00,
2013-03-22 10:54:00,37.2,36.7,30.30,NE,35,5.0,6.0,98,0.00,,,0.01,142,Wunderground v.1.15,2013-03-22 17:54:00,
2013-03-22 10:59:00,37.3,37.0,30.30,NNE,32,3.0,6.0,99,0.00,,,0.01,113,Wunderground v.1.15,2013-03-22 17:59:00,
2013-03-22 11:04:00,37.6,37.3,30.30,NNE,32,3.0,4.0,99,0.00,,,0.01,127,Wunderground v.1.15,2013-03-22 18:04:00,
2013-03-22 11:09:00,37.8,37.5,30.30,NNE,32,2.0,4.0,99,0.00,,,0.01,172,Wunderground v.1.15,2013-03-22 18:09:00,
2013-03-22 11:14:00,38.0,37.7,30.30,NNE,32,3.0,4.0,99,0.00,,,0.01,197,Wunderground v.1.15,2013-03-22 18:14:00,
2013-03-22 11:19:00,38.0,37.5,30.30,NNE,32,2.0,4.0,98,0.00,,,0.01,244,Wunderground v.1.15,2013-03-22 18:19:00,
2013-03-22 11:24:00,38.3,38.0,30.30,NNE,32,3.0,4.0,99,0.00,,,0.01,345,Wunderground v.1.15,2013-03-22 18:24:00,
2013-03-22 11:29:00,39.1,38.8,30.30,NE,39,6.0,6.0,99,0.00,,,0.01,216,Wunderground v.1.15,2013-03-22 18:29:00,
2013-03-22 11:34:00,39.6,39.3,30.30,NE,46,4.0,6.0,99,0.00,,,0.01,640,Wunderground v.1.15,2013-03-22 18:34:00,
2013-03-22 11:39:00,40.2,39.9,30.30,NNE,31,4.0,6.0,99,0.00,,,0.01,603,Wunderground v.1.15,2013-03-22 18:39:00,
2013-03-22 11:44:00,40.6,40.3,30.30,NNE,17,3.0,5.0,99,0.00,,,0.01,621,Wunderground v.1.15,2013-03-22 18:44:00,
2013-03-22 11:49:00,41.2,40.9,30.31,NNE,27,3.0,5.0,99,0.00,,,0.01,679,Wunderground v.1.15,2013-03-22 18:49:00,
2013-03-22 11:54:00,41.5,41.0,30.31,NNE,14,4.0,5.0,98,0.00,,,0.01,663,Wunderground v.1.15,2013-03-22 18:54:00,
2013-03-22 11:59:00,41.9,41.4,30.31,NNE,21,5.0,5.0,98,0.00,,,0.01,663,Wunderground v.1.15,2013-03-22 18:59:00,
2013-03-22 12:04:00,42.1,41.0,30.30,NNE,31,3.0,5.0,96,0.00,,,0.01,659,Wunderground v.1.15,2013-03-22 19:04:00,
2013-03-22 12:09:00,42.5,41.2,30.30,NNE,18,3.0,5.0,95,0.00,,,0.01,675,Wunderground v.1.15,2013-03-22 19:09:00,
2013-03-22 12:14:00,42.6,41.0,30.30,NNE,24,3.0,5.0,94,0.00,,,0.01,703,Wunderground v.1.15,2013-03-22 19:14:00,
2013-03-22 12:19:00,43.2,41.3,30.30,NE,38,3.0,5.0,93,0.00,,,0.01,712,Wunderground v.1.15,2013-03-22 19:19:00,
2013-03-22 12:24:00,43.2,40.8,30.30,NNE,32,4.0,6.0,91,0.00,,,0.01,737,Wunderground v.1.15,2013-03-22 19:24:00,
2013-03-22 12:29:00,43.5,40.8,30.30,NE,35,5.0,6.0,90,0.00,,,0.01,751,Wunderground v.1.15,2013-03-22 19:29:00,
2013-03-22 12:34:00,43.9,41.2,30.31,NE,40,5.0,6.0,90,0.00,,,0.01,721,Wunderground v.1.15,2013-03-22 19:34:00,
2013-03-22 12:39:00,44.2,41.2,30.31,NE,39,6.0,6.0,89,0.00,,,0.01,759,Wunderground v.1.15,2013-03-22 19:39:00,
2013-03-22 12:44:00,44.3,41.0,30.31,NE,38,5.0,6.0,88,0.00,,,0.01,814,Wunderground v.1.15,2013-03-22 19:44:00,
2013-03-22 12:49:00,44.6,41.0,30.31,North,11,5.0,6.0,87,0.00,,,0.01,622,Wunderground v.1.15,2013-03-22 19:49:00,
2013-03-22 12:54:00,44.5,40.3,30.31,NNE,32,3.0,5.0,85,0.00,,,0.01,279,Wunderground v.1.15,2013-03-22 19:54:00,
2013-03-22 12:59:00,44.2,39.4,30.31,NNE,32,3.0,5.0,83,0.00,,,0.01,371,Wunderground v.1.15,2013-03-22 19:59:00,
2013-03-22 13:04:00,44.1,39.6,30.31,NE,34,2.0,5.0,84,0.00,,,0.01,503,Wunderground v.1.15,2013-03-22 20:04:00,
2013-03-22 13:09:00,43.9,39.4,30.31,NE,39,4.0,5.0,84,0.00,,,0.01,773,Wunderground v.1.15,2013-03-22 20:09:00,
2013-03-22 13:14:00,44.1,39.6,30.31,NE,39,1.0,5.0,84,0.00,,,0.01,724,Wunderground v.1.15,2013-03-22 20:14:00,
2013-03-22 13:19:00,44.2,39.7,30.30,NE,37,3.0,5.0,84,0.00,,,0.01,714,Wunderground v.1.15,2013-03-22 20:19:00,
2013-03-22 13:24:00,44.5,39.7,30.30,NE,37,4.0,5.0,83,0.00,,,0.01,712,Wunderground v.1.15,2013-03-22 20:24:00,
2013-03-22 13:29:00,44.6,39.4,30.30,NE,38,4.0,5.0,82,0.00,,,0.01,712,Wunderground v.1.15,2013-03-22 20:29:00,
2013-03-22 13:34:00,44.9,39.4,30.31,NE,38,3.0,5.0,81,0.00,,,0.01,749,Wunderground v.1.15,2013-03-22 20:34:00,
2013-03-22 13:39:00,44.9,39.1,30.31,NE,37,2.0,5.0,80,0.00,,,0.01,712,Wunderground v.1.15,2013-03-22 20:39:00,
2013-03-22 13:44:00,44.8,38.4,30.31,NE,38,2.0,3.0,78,0.00,,,0.01,715,Wunderground v.1.15,2013-03-22 20:44:00,
2013-03-22 13:49:00,45.1,39.0,30.30,NE,38,1.0,4.0,79,0.00,,,0.01,719,Wunderground v.1.15,2013-03-22 20:49:00,
2013-03-22 13:54:00,45.2,39.1,30.30,NE,38,4.0,4.0,79,0.00,,,0.01,211,Wunderground v.1.15,2013-03-22 20:54:00,
2013-03-22 13:59:00,45.2,38.7,30.30,NE,38,1.0,4.0,78,0.00,,,0.01,714,Wunderground v.1.15,2013-03-22 20:59:00,
2013-03-22 14:04:00,45.2,38.7,30.30,NE,37,3.0,4.0,78,0.00,,,0.01,707,Wunderground v.1.15,2013-03-22 21:04:00,
2013-03-22 14:09:00,45.1,38.6,30.30,NE,37,2.0,4.0,78,0.00,,,0.01,202,Wunderground v.1.15,2013-03-22 21:09:00,
2013-03-22 14:14:00,45.2,38.7,30.30,NE,38,3.0,4.0,78,0.00,,,0.01,708,Wunderground v.1.15,2013-03-22 21:14:00,
2013-03-22 14:19:00,45.4,38.6,30.30,NE,37,2.0,4.0,77,0.00,,,0.01,735,Wunderground v.1.15,2013-03-22 21:19:00,
2013-03-22 14:24:00,45.5,38.7,30.30,NE,37,4.0,4.0,77,0.00,,,0.01,684,Wunderground v.1.15,2013-03-22 21:24:00,
2013-03-22 14:29:00,45.4,38.6,30.30,NE,38,5.0,5.0,77,0.00,,,0.01,670,Wunderground v.1.15,2013-03-22 21:29:00,
2013-03-22 14:34:00,45.4,38.6,30.30,NE,37,4.0,5.0,77,0.00,,,0.01,661,Wunderground v.1.15,2013-03-22 21:34:00,
2013-03-22 14:39:00,45.5,39.0,30.30,NE,37,3.0,5.0,78,0.00,,,0.01,657,Wunderground v.1.15,2013-03-22 21:39:00,
2013-03-22 14:44:00,45.7,38.9,30.30,NE,37,4.0,5.0,77,0.00,,,0.01,652,Wunderground v.1.15,2013-03-22 21:44:00,
2013-03-22 14:49:00,45.7,39.2,30.30,NE,37,4.0,5.0,78,0.00,,,0.01,645,Wunderground v.1.15,2013-03-22 21:49:00,
2013-03-22 14:54:00,45.7,38.9,30.30,NE,37,3.0,4.0,77,0.00,,,0.01,633,Wunderground v.1.15,2013-03-22 21:54:00,
2013-03-22 14:59:00,45.7,38.2,30.30,NNE,33,3.0,6.0,75,0.00,,,0.01,628,Wunderground v.1.15,2013-03-22 21:59:00,
2013-03-22 15:04:00,45.7,38.6,30.30,NE,38,3.0,5.0,76,0.00,,,0.01,635,Wunderground v.1.15,2013-03-22 22:04:00,
2013-03-22 15:09:00,45.8,38.7,30.30,NE,38,3.0,5.0,76,0.00,,,0.01,617,Wunderground v.1.15,2013-03-22 22:09:00,
2013-03-22 15:14:00,45.7,37.9,30.30,NE,38,2.0,3.0,74,0.00,,,0.01,635,Wunderground v.1.15,2013-03-22 22:14:00,
2013-03-22 15:19:00,46.1,37.9,30.30,NE,38,2.0,3.0,73,0.00,,,0.01,610,Wunderground v.1.15,2013-03-22 22:19:00,
2013-03-22 15:24:00,46.1,37.9,30.30,NE,38,2.0,4.0,73,0.00,,,0.01,580,Wunderground v.1.15,2013-03-22 22:24:00,
2013-03-22 15:29:00,46.1,36.9,30.30,NE,38,3.0,4.0,70,0.00,,,0.01,571,Wunderground v.1.15,2013-03-22 22:29:00,
2013-03-22 15:34:00,46.0,36.4,30.30,NE,38,1.0,3.0,69,0.00,,,0.01,554,Wunderground v.1.15,2013-03-22 22:34:00,
2013-03-22 15:39:00,46.0,37.1,30.30,NE,38,3.0,4.0,71,0.00,,,0.01,545,Wunderground v.1.15,2013-03-22 22:39:00,
2013-03-22 15:44:00,46.0,37.1,30.30,NE,38,3.0,4.0,71,0.00,,,0.01,531,Wunderground v.1.15,2013-03-22 22:44:00,
2013-03-22 15:49:00,46.0,36.8,30.30,NE,38,3.0,4.0,70,0.00,,,0.01,520,Wunderground v.1.15,2013-03-22 22:49:00,
2013-03-22 15:54:00,45.7,36.5,30.30,NE,38,3.0,5.0,70,0.00,,,0.01,512,Wunderground v.1.15,2013-03-22 22:54:00,
2013-03-22 15:59:00,45.7,36.8,30.30,NNE,29,3.0,5.0,71,0.00,,,0.01,501,Wunderground v.1.15,2013-03-22 22:59:00,
2013-03-22 16:04:00,45.7,37.2,30.30,NNE,32,4.0,5.0,72,0.00,,,0.01,97,Wunderground v.1.15,2013-03-22 23:04:00,
2013-03-22 16:09:00,45.2,36.4,30.30,NNE,30,4.0,5.0,71,0.00,,,0.01,51,Wunderground v.1.15,2013-03-22 23:09:00,
2013-03-22 16:14:00,44.6,34.7,30.30,NNE,29,3.0,6.0,68,0.00,,,0.01,93,Wunderground v.1.15,2013-03-22 23:14:00,
2013-03-22 16:19:00,44.3,35.5,30.30,NNE,29,2.0,6.0,71,0.00,,,0.01,70,Wunderground v.1.15,2013-03-22 23:19:00,
2013-03-22 16:24:00,43.8,34.6,30.30,NNE,30,3.0,4.0,70,0.00,,,0.01,60,Wunderground v.1.15,2013-03-22 23:24:00,
2013-03-22 16:29:00,43.3,34.5,30.30,NNE,30,4.0,5.0,71,0.00,,,0.01,58,Wunderground v.1.15,2013-03-22 23:29:00,
2013-03-22 16:34:00,43.1,34.7,30.30,NE,49,3.0,5.0,72,0.00,,,0.01,53,Wunderground v.1.15,2013-03-22 23:34:00,
2013-03-22 16:39:00,42.9,35.2,30.30,NE,43,5.0,7.0,74,0.00,,,0.01,63,Wunderground v.1.15,2013-03-22 23:39:00,
2013-03-22 16:44:00,42.6,34.9,30.30,NNE,24,3.0,6.0,74,0.00,,,0.01,47,Wunderground v.1.15,2013-03-22 23:44:00,
2013-03-22 16:49:00,42.5,34.8,30.30,North,5,4.0,7.0,74,0.00,,,0.01,46,Wunderground v.1.15,2013-03-22 23:49:00,
2013-03-22 16:54:00,42.3,34.6,30.30,North,360,7.0,8.0,74,0.00,,,0.01,54,Wunderground v.1.15,2013-03-22 23:54:00,
2013-03-22 16:59:00,42.3,34.3,30.30,NNE,13,4.0,8.0,73,0.00,,,0.01,98,Wunderground v.1.15,2013-03-22 23:59:00,
2013-03-22 17:04:00,42.3,34.3,30.30,NNE,17,5.0,8.0,73,0.00,,,0.01,53,Wunderground v.1.15,2013-03-23 00:04:00,
2013-03-22 17:09:00,42.3,34.6,30.30,NNE,13,5.0,9.0,74,0.00,,,0.01,88,Wunderground v.1.15,2013-03-23 00:09:00,
2013-03-22 17:14:00,42.3,34.9,30.30,North,355,6.0,8.0,75,0.00,,,0.01,53,Wunderground v.1.15,2013-03-23 00:14:00,
2013-03-22 17:19:00,42.2,34.8,30.31,NNE,32,5.0,8.0,75,0.00,,,0.01,51,Wunderground v.1.15,2013-03-23 00:19:00,
2013-03-22 17:24:00,42.3,35.3,30.31,NNE,13,4.0,7.0,76,0.00,,,0.01,47,Wunderground v.1.15,2013-03-23 00:24:00,
2013-03-22 17:29:00,42.2,34.8,30.31,NNW,346,3.0,7.0,75,0.00,,,0.01,47,Wunderground v.1.15,2013-03-23 00:29:00,
2013-03-22 17:34:00,42.2,34.8,30.31,North,355,4.0,8.0,75,0.00,,,0.01,44,Wunderground v.1.15,2013-03-23 00:34:00,
2013-03-22 17:39:00,42.3,34.9,30.31,NNW,347,5.0,8.0,75,0.00,,,0.01,39,Wunderground v.1.15,2013-03-23 00:39:00,
2013-03-22 17:44:00,42.3,35.3,30.31,NNE,22,3.0,5.0,76,0.00,,,0.01,33,Wunderground v.1.15,2013-03-23 00:44:00,
2013-03-22 17:49:00,42.3,35.6,30.31,NNW,348,10.0,10.0,77,0.00,,,0.01,32,Wunderground v.1.15,2013-03-23 00:49:00,
2013-03-22 17:54:00,42.3,35.6,30.31,North,11,4.0,8.0,77,0.00,,,0.01,33,Wunderground v.1.15,2013-03-23 00:54:00,
2013-03-22 17:59:00,42.3,35.3,30.31,North,360,7.0,9.0,76,0.00,,,0.01,33,Wunderground v.1.15,2013-03-23 00:59:00,
2013-03-22 18:04:00,42.2,34.8,30.31,NE,43,3.0,9.0,75,0.00,,,0.01,33,Wunderground v.1.15,2013-03-23 01:04:00,
2013-03-22 18:09:00,42.2,34.2,30.31,NNW,336,1.0,9.0,73,0.00,,,0.01,35,Wunderground v.1.15,2013-03-23 01:09:00,
2013-03-22 18:14:00,42.3,33.6,30.31,North,5,5.0,8.0,71,0.00,,,0.01,33,Wunderground v.1.15,2013-03-23 01:14:00,
2013-03-22 18:19:00,42.3,33.6,30.31,NNE,16,5.0,8.0,71,0.00,,,0.01,30,Wunderground v.1.15,2013-03-23 01:19:00,
2013-03-22 18:24:00,42.3,33.2,30.31,North,360,3.0,6.0,70,0.00,,,0.01,30,Wunderground v.1.15,2013-03-23 01:24:00,
2013-03-22 18:29:00,42.3,32.8,30.31,NE,42,1.0,7.0,69,0.00,,,0.01,28,Wunderground v.1.15,2013-03-23 01:29:00,
2013-03-22 18:34:00,42.3,32.5,30.31,North,360,4.0,9.0,68,0.00,,,0.01,25,Wunderground v.1.15,2013-03-23 01:34:00,
2013-03-22 18:39:00,42.2,32.0,30.31,North,360,2.0,9.0,67,0.00,,,0.01,21,Wunderground v.1.15,2013-03-23 01:39:00,
2013-03-22 18:44:00,42.3,32.5,30.31,NNE,30,3.0,6.0,68,0.00,,,0.01,18,Wunderground v.1.15,2013-03-23 01:44:00,
2013-03-22 18:49:00,42.3,32.5,30.31,North,360,3.0,7.0,68,0.00,,,0.01,16,Wunderground v.1.15,2013-03-23 01:49:00,
2013-03-22 18:54:00,42.2,32.4,30.31,North,11,4.0,4.0,68,0.00,,,0.01,14,Wunderground v.1.15,2013-03-23 01:54:00,
2013-03-22 18:59:00,42.2,32.4,30.31,NNE,22,0.0,5.0,68,0.00,,,0.01,12,Wunderground v.1.15,2013-03-23 01:59:00,
2013-03-22 19:04:00,42.1,32.3,30.30,NNW,346,0.0,5.0,68,0.00,,,0.01,11,Wunderground v.1.15,2013-03-23 02:04:00,
2013-03-22 19:09:00,42.1,31.9,30.30,ENE,57,3.0,6.0,67,0.00,,,0.01,7,Wunderground v.1.15,2013-03-23 02:09:00,
2013-03-22 19:14:00,41.9,31.4,30.30,North,355,0.0,7.0,66,0.00,,,0.01,5,Wunderground v.1.15,2013-03-23 02:14:00,
2013-03-22 19:19:00,41.9,31.0,30.31,NE,40,2.0,7.0,65,0.00,,,0.01,0,Wunderground v.1.15,2013-03-23 02:19:00,
2013-03-22 19:24:00,41.9,30.6,30.31,NNW,329,0.0,5.0,64,0.00,,,0.01,0,Wunderground v.1.15,2013-03-23 02:24:00,
2013-03-22 19:29:00,41.8,30.9,30.31,NNE,27,1.0,5.0,65,0.00,,,0.01,0,Wunderground v.1.15,2013-03-23 02:29:00,
2013-03-22 19:34:00,41.8,30.9,30.31,NNE,28,0.0,1.0,65,0.00,,,0.01,0,Wunderground v.1.15,2013-03-23 02:34:00,
2013-03-22 19:39:00,41.8,31.6,30.31,NNE,32,1.0,2.0,67,0.00,,,0.01,0,Wunderground v.1.15,2013-03-23 02:39:00,
2013-03-22 19:44:00,41.5,32.1,30.31,NNE,32,1.0,2.0,69,0.00,,,0.01,0,Wunderground v.1.15,2013-03-23 02:44:00,
2013-03-22 19:49:00,41.2,32.2,30.32,SW,226,0.0,3.0,70,0.00,,,0.01,0,Wunderground v.1.15,2013-03-23 02:49:00,
2013-03-22 19:54:00,40.8,32.1,30.32,SW,226,2.0,2.0,71,0.00,,,0.01,0,Wunderground v.1.15,2013-03-23 02:54:00,
2013-03-22 19:59:00,40.5,32.2,30.32,SW,226,2.0,3.0,72,0.00,,,0.01,0,Wunderground v.1.15,2013-03-23 02:59:00,
2013-03-22 20:04:00,40.1,32.5,30.32,SW,225,0.0,3.0,74,0.00,,,0.01,0,Wunderground v.1.15,2013-03-23 03:04:00,
2013-03-22 20:09:00,39.6,32.3,30.32,SW,225,2.0,3.0,75,0.00,,,0.01,0,Wunderground v.1.15,2013-03-23 03:09:00,
2013-03-22 20:14:00,39.2,32.6,30.32,SSW,213,2.0,4.0,77,0.00,,,0.01,0,Wunderground v.1.15,2013-03-23 03:14:00,
2013-03-22 20:19:00,38.8,32.5,30.32,SSW,213,3.0,4.0,78,0.00,,,0.01,0,Wunderground v.1.15,2013-03-23 03:19:00,
2013-03-22 20:24:00,38.2,32.3,30.32,SSW,204,3.0,4.0,79,0.00,,,0.01,0,Wunderground v.1.15,2013-03-23 03:24:00,
2013-03-22 20:29:00,37.9,32.3,30.32,SSW,204,2.0,4.0,80,0.00,,,0.01,0,Wunderground v.1.15,2013-03-23 03:29:00,
2013-03-22 20:34:00,37.5,32.2,30.32,SSW,204,3.0,4.0,81,0.00,,,0.01,0,Wunderground v.1.15,2013-03-23 03:34:00,
2013-03-22 20:39:00,37.2,32.2,30.32,SSW,204,3.0,4.0,82,0.00,,,0.01,0,Wunderground v.1.15,2013-03-23 03:39:00,
2013-03-22 20:44:00,37.0,32.3,30.32,SSW,204,3.0,4.0,83,0.00,,,0.01,0,Wunderground v.1.15,2013-03-23 03:44:00,
2013-03-22 20:49:00,36.9,32.5,30.33,SSW,204,1.0,4.0,84,0.00,,,0.01,0,Wunderground v.1.15,2013-03-23 03:49:00,
2013-03-22 20:54:00,36.6,32.2,30.33,SSW,204,3.0,4.0,84,0.00,,,0.01,0,Wunderground v.1.15,2013-03-23 03:54:00,
2013-03-22 20:59:00,36.5,32.1,30.33,SSW,204,3.0,4.0,84,0.00,,,0.01,0,Wunderground v.1.15,2013-03-23 03:59:00,
2013-03-22 21:00:00,36.5,32.1,30.33,SSW,204,3.0,4.0,84,0.00,,,0.01,0,Wunderground v.1.15,2013-03-23 04:00:00,
2013-03-22 21:05:00,36.5,32.1,30.34,SSW,204,4.0,4.0,84,0.00,,,0.01,0,Wunderground v.1.15,2013-03-23 04:05:00,
2013-03-22 21:10:00,36.3,32.2,30.34,SSW,204,3.0,3.0,85,0.00,,,0.01,0,Wunderground v.1.15,2013-03-23 04:10:00,
2013-03-22 21:15:00,36.2,32.1,30.34,SSW,204,4.0,4.0,85,0.00,,,0.01,0,Wunderground v.1.15,2013-03-23 04:15:00,
2013-03-22 21:20:00,36.2,32.4,30.34,SSW,204,3.0,4.0,86,0.00,,,0.01,0,Wunderground v.1.15,2013-03-23 04:20:00,
2013-03-22 21:25:00,36.0,32.2,30.34,SSW,204,4.0,4.0,86,0.00,,,0.01,0,Wunderground v.1.15,2013-03-23 04:25:00,
2013-03-22 21:30:00,35.9,32.4,30.35,SSW,204,3.0,4.0,87,0.00,,,0.01,0,Wunderground v.1.15,2013-03-23 04:30:00,
2013-03-22 21:35:00,35.9,32.4,30.35,SSW,199,3.0,5.0,87,0.00,,,0.01,0,Wunderground v.1.15,2013-03-23 04:35:00,
2013-03-22 21:40:00,35.8,32.3,30.35,SSW,195,5.0,5.0,87,0.00,,,0.01,0,Wunderground v.1.15,2013-03-23 04:40:00,
2013-03-22 21:45:00,35.6,32.1,30.35,SSW,196,4.0,5.0,87,0.00,,,0.01,0,Wunderground v.1.15,2013-03-23 04:45:00,
2013-03-22 21:50:00,35.6,32.1,30.35,SSW,196,4.0,4.0,87,0.00,,,0.01,0,Wunderground v.1.15,2013-03-23 04:50:00,
2013-03-22 21:55:00,35.5,32.0,30.35,SSW,196,4.0,5.0,87,0.00,,,0.01,0,Wunderground v.1.15,2013-03-23 04:55:00,
2013-03-22 22:00:00,35.5,32.0,30.35,SSW,196,4.0,5.0,87,0.00,,,0.01,0,Wunderground v.1.15,2013-03-23 05:00:00,
2013-03-22 22:05:00,35.5,32.0,30.35,SSW,196,4.0,5.0,87,0.00,,,0.01,0,Wunderground v.1.15,2013-03-23 05:05:00,
2013-03-22 22:10:00,35.3,31.8,30.35,SSW,196,4.0,4.0,87,0.00,,,0.01,0,Wunderground v.1.15,2013-03-23 05:10:00,
2013-03-22 22:15:00,35.3,32.1,30.35,SSW,196,4.0,4.0,88,0.00,,,0.01,0,Wunderground v.1.15,2013-03-23 05:15:00,
2013-03-22 22:20:00,35.2,32.0,30.35,SSW,196,3.0,4.0,88,0.00,,,0.01,0,Wunderground v.1.15,2013-03-23 05:20:00,
2013-03-22 22:25:00,35.2,32.0,30.35,SSW,196,4.0,4.0,88,0.00,,,0.01,0,Wunderground v.1.15,2013-03-23 05:25:00,
2013-03-22 22:30:00,35.0,31.8,30.35,SSW,196,4.0,4.0,88,0.00,,,0.01,0,Wunderground v.1.15,2013-03-23 05:30:00,
2013-03-22 22:35:00,34.9,31.7,30.35,SSW,196,3.0,4.0,88,0.00,,,0.01,0,Wunderground v.1.15,2013-03-23 05:35:00,
2013-03-22 22:40:00,34.7,31.8,30.35,SSW,196,2.0,4.0,89,0.00,,,0.01,0,Wunderground v.1.15,2013-03-23 05:40:00,
2013-03-22 22:45:00,34.7,31.8,30.35,SSW,196,3.0,5.0,89,0.00,,,0.01,0,Wunderground v.1.15,2013-03-23 05:45:00,
2013-03-22 22:50:00,34.4,31.5,30.35,SSW,196,4.0,4.0,89,0.00,,,0.01,0,Wunderground v.1.15,2013-03-23 05:50:00,
2013-03-22 22:55:00,34.3,31.4,30.35,SSW,196,4.0,4.0,89,0.00,,,0.01,0,Wunderground v.1.15,2013-03-23 05:55:00,
2013-03-22 23:00:00,34.3,31.4,30.35,SSW,196,4.0,4.0,89,0.00,,,0.01,0,Wunderground v.1.15,2013-03-23 06:00:00,
2013-03-22 23:05:00,34.3,31.4,30.35,SSW,196,3.0,4.0,89,0.00,,,0.01,0,Wunderground v.1.15,2013-03-23 06:05:00,
2013-03-22 23:10:00,34.1,31.2,30.35,SSW,196,3.0,4.0,89,0.00,,,0.01,0,Wunderground v.1.15,2013-03-23 06:10:00,
2013-03-22 23:15:00,34.1,31.2,30.35,SSW,196,4.0,4.0,89,0.00,,,0.01,0,Wunderground v.1.15,2013-03-23 06:15:00,
2013-03-22 23:20:00,34.1,31.5,30.35,SSW,196,4.0,4.0,90,0.00,,,0.01,0,Wunderground v.1.15,2013-03-23 06:20:00,
2013-03-22 23:25:00,34.1,31.5,30.35,SSW,196,4.0,5.0,90,0.00,,,0.01,0,Wunderground v.1.15,2013-03-23 06:25:00,
2013-03-22 23:30:00,34.1,31.5,30.35,SSW,196,4.0,4.0,90,0.00,,,0.01,0,Wunderground v.1.15,2013-03-23 06:30:00,
2013-03-22 23:35:00,34.1,31.5,30.35,SSW,196,4.0,4.0,90,0.00,,,0.01,0,Wunderground v.1.15,2013-03-23 06:35:00,
2013-03-22 23:40:00,34.0,31.4,30.35,SSW,196,3.0,4.0,90,0.00,,,0.01,0,Wunderground v.1.15,2013-03-23 06:40:00,
2013-03-22 23:45:00,34.0,31.4,30.35,SSW,196,3.0,4.0,90,0.00,,,0.01,0,Wunderground v.1.15,2013-03-23 06:45:00,
2013-03-22 23:50:00,33.8,31.2,30.35,SSW,196,3.0,3.0,90,0.00,,,0.01,0,Wunderground v.1.15,2013-03-23 06:50:00,
2013-03-22 23:55:00,33.8,31.2,30.35,SSW,197,4.0,5.0,90,0.00,,,0.01,0,Wunderground v.1.15,2013-03-23 06:55:00,